TimeEST,TemperatureF,Dew PointF,Humidity,Sea Level PressureIn,VisibilityMPH,Wind Direction,Wind SpeedMPH,Gust SpeedMPH,PrecipitationIn,Events,Conditions,WindDirDegrees,DateUTC
12:53 AM,64.9,64.0,97,30.05,10.0,North,4.6,-,N/A,,Clear,350,2012-12-06 05:53:00
1:53 AM,64.0,64.0,100,30.04,10.0,Calm,Calm,-,N/A,,Partly Cloudy,0,2012-12-06 06:53:00
2:53 AM,64.9,64.9,100,30.03,10.0,North,4.6,-,N/A,,Overcast,10,2012-12-06 07:53:00
3:53 AM,66.0,64.9,96,30.02,10.0,NW,3.5,-,0.01,Rain,Light Rain,310,2012-12-06 08:53:00
4:53 AM,66.0,64.9,96,30.01,10.0,North,5.8,-,0.00,,Overcast,360,2012-12-06 09:53:00
5:53 AM,64.9,64.0,97,30.01,10.0,North,4.6,-,N/A,,Clear,360,2012-12-06 10:53:00
6:53 AM,64.9,64.0,97,30.01,10.0,North,5.8,-,N/A,,Scattered Clouds,360,2012-12-06 11:53:00
7:53 AM,64.0,63.0,96,30.03,10.0,Calm,Calm,-,N/A,,Scattered Clouds,0,2012-12-06 12:53:00
8:53 AM,69.1,66.0,90,30.04,10.0,ENE,8.1,-,N/A,,Mostly Cloudy,70,2012-12-06 13:53:00
9:10 AM,69.8,66.2,88,30.05,10.0,ENE,11.5,-,N/A,,Mostly Cloudy,60,2012-12-06 14:10:00
9:21 AM,69.8,66.2,88,30.05,10.0,ENE,12.7,-,N/A,,Mostly Cloudy,60,2012-12-06 14:21:00
9:53 AM,70.0,66.9,90,30.06,10.0,NE,11.5,-,N/A,,Mostly Cloudy,50,2012-12-06 14:53:00
10:53 AM,73.0,66.0,79,30.04,10.0,NE,4.6,-,N/A,,Overcast,50,2012-12-06 15:53:00
11:53 AM,75.9,64.9,69,30.01,10.0,NE,10.4,-,N/A,,Overcast,40,2012-12-06 16:53:00
12:53 PM,78.1,64.9,64,29.99,10.0,Variable,6.9,-,N/A,,Scattered Clouds,0,2012-12-06 17:53:00
1:53 PM,79.0,64.9,62,29.96,10.0,ENE,9.2,-,N/A,,Scattered Clouds,60,2012-12-06 18:53:00
2:53 PM,75.0,66.0,73,29.95,10.0,ENE,12.7,-,N/A,,Clear,70,2012-12-06 19:53:00
3:53 PM,73.9,66.0,76,29.96,10.0,ENE,13.8,-,N/A,,Partly Cloudy,60,2012-12-06 20:53:00
4:53 PM,72.0,64.0,76,29.96,10.0,ENE,8.1,-,N/A,,Scattered Clouds,60,2012-12-06 21:53:00
5:53 PM,70.0,63.0,78,29.97,10.0,NNE,3.5,-,N/A,,Clear,30,2012-12-06 22:53:00
6:53 PM,69.1,64.0,84,29.97,10.0,NNE,3.5,-,N/A,,Clear,30,2012-12-06 23:53:00
7:53 PM,69.1,64.9,87,29.98,10.0,NNE,6.9,-,N/A,,Clear,20,2012-12-07 00:53:00
8:53 PM,66.9,64.0,90,29.98,10.0,Calm,Calm,-,N/A,,Clear,0,2012-12-07 01:53:00
9:53 PM,63.0,62.1,97,29.98,10.0,Calm,Calm,-,N/A,,Clear,0,2012-12-07 02:53:00
10:53 PM,64.0,62.1,93,29.98,10.0,Calm,Calm,-,N/A,,Clear,0,2012-12-07 03:53:00
11:53 PM,62.1,62.1,100,29.98,10.0,WNW,3.5,-,N/A,,Clear,300,2012-12-07 04:53:00